Location: G�ppingen
(48.7000°N, 9.6670°E)
Time: 21:54:13

N. Korean satellite - Visible Passes

Search period start: 23 March 2018 00:00
Search period end: 02 April 2018 01:00
Orbit: 460 x 512 km, 97.2° (Epoch: 23 March)

Date Brightness Start Highest point End Pass type
(mag) Time Alt. Az. Time Alt. Az. Time Alt. Az.
23 Mar 9.9 19:07:35 10° SW 19:10:12 18° W 19:12:51 10° NW visible
26 Mar 10.6 20:31:33 10° W 20:32:25 11° W 20:33:17 10° WNW visible
30 Mar 10.4 20:29:20 10° WSW 20:30:30 11° W 20:31:41 10° WNW visible
